RH
31 31 28 21 18 16 17 19 19 18 17 17 18 16 15 14 13 12 10 10 12 11 14 25 33 34 34 33 33 34 34 36 41 45 46 48 50 50 51 52 54 57 60 63 64 66 66 65 69 74 75 73 70 68 67 66 67 69 73 75 74 74 74 74 75 74 74 74 70 66 66 65 66 68 69 70 72 70 68 64 59 53 45 40 39 39
35 32 24 18 18 18 19 21 20 19 17 16 18 17 15 15 14 12 11 11 11 13 22 31 33 33 33 34 35 36 37 37 37 42 45 45 48 51 52 52 54 59 62 63 64 65 65 65 68 73 75 74 72 70 67 66 68 68 70 74 74 73 73 73 73 74 74 74 70 68 68 67 67 70 71 73 74 71 65 62 59 52 45 42 41 41
37 31 22 20 22 20 20 21 20 19 17 17 18 18 17 15 15 15 13 12 10 18 32 34 32 36 36 35 39 41 40 40 41 43 46 46 47 49 50 53 56 60 61 63 65 66 66 67 69 74 76 75 73 70 66 67 68 67 69 73 74 75 75 74 74 74 74 74 72 70 70 70 71 74 74 73 73 69 64 62 58 51 46 45 44 43
34 30 26 27 25 22 22 20 20 20 18 18 18 18 18 15 16 16 13 13 14 24 35 35 34 40 41 41 46 48 44 45 46 47 49 49 48 48 49 54 58 61 62 63 65 65 66 68 71 76 78 74 72 69 66 69 69 67 69 73 75 76 76 77 78 78 76 76 75 74 74 74 75 76 75 72 71 68 66 62 56 50 47 46 44 44
29 28 28 29 25 23 23 21 20 20 19 18 17 18 18 16 16 15 16 22 26 31 33 34 46 53 50 49 51 51 50 49 49 48 50 51 50 51 52 55 58 61 61 61 63 64 64 65 66 71 74 72 70 67 67 69 67 66 70 72 74 75 76 79 82 81 79 77 77 78 77 77 77 76 74 71 69 68 65 59 54 50 47 44 43 41
28 27 26 26 26 24 23 22 20 19 19 18 17 17 17 18 18 15 20 28 36 46 41 34 51 65 56 50 52 53 52 51 51 49 49 51 51 51 53 55 58 60 59 59 60 60 60 60 60 64 69 70 68 66 68 68 65 67 70 71 73 77 78 79 81 80 79 79 80 79 78 79 79 76 73 72 70 67 60 54 50 47 44 42 40 37
29 26 25 25 26 26 24 23 20 19 19 18 17 17 18 19 19 17 22 29 35 46 45 31 41 61 61 54 55 55 53 52 52 51 50 50 51 49 51 57 60 60 60 61 60 59 60 62 63 66 69 69 65 66 69 66 64 66 68 68 73 79 80 79 77 77 80 82 82 81 79 79 77 73 72 73 70 64 55 48 45 43 40 38 37 35
28 26 26 25 26 27 25 22 20 18 18 18 17 18 20 20 20 19 21 27 29 34 41 34 34 53 63 58 56 56 57 57 54 52 50 50 50 48 51 59 63 63 62 61 61 62 64 65 67 69 68 64 62 65 66 62 62 66 66 68 72 77 80 79 77 78 81 84 83 81 80 79 76 71 70 70 67 60 51 46 42 40 38 37 36 36
28 27 27 27 27 27 24 20 19 19 17 17 18 20 22 22 21 21 20 21 27 38 50 45 38 53 65 59 58 61 63 62 56 51 50 50 49 48 53 60 62 62 61 62 63 63 63 63 66 66 62 60 61 62 61 60 63 66 66 67 70 74 79 81 79 80 84 86 83 80 80 78 75 72 69 66 61 56 51 45 42 40 39 38 37 37
30 27 27 29 26 23 22 21 20 18 17 18 21 23 23 24 23 22 22 19 28 47 56 49 41 51 65 63 63 67 65 60 54 50 50 52 52 53 56 60 59 58 61 63 64 63 61 60 62 62 61 62 63 59 58 61 64 65 64 67 69 73 77 80 80 81 86 87 83 80 78 76 73 71 66 60 56 53 49 44 42 43 41 39 37 35
28 27 27 28 25 22 22 23 20 17 17 19 24 25 24 26 23 23 26 27 40 54 50 45 42 45 58 65 62 58 52 49 50 49 50 51 54 57 57 58 57 57 59 62 64 63 60 58 60 63 63 64 63 59 59 62 63 63 66 69 71 72 75 76 78 83 87 86 83 80 78 75 71 64 58 53 51 50 46 43 43 43 40 37 34 32
28 29 28 25 25 25 24 22 20 18 18 20 25 28 26 28 25 24 30 34 46 52 40 38 42 38 47 59 56 47 42 43 45 45 48 50 51 55 56 57 58 57 57 59 61 60 59 60 62 65 66 64 63 62 62 62 62 64 69 73 73 73 75 76 78 84 87 85 83 80 77 72 64 56 51 50 49 47 45 43 43 41 37 34 32 31
28 26 25 27 28 26 24 23 21 19 19 21 26 29 30 30 28 29 34 36 40 40 32 36 44 39 39 44 44 42 42 43 41 41 48 50 49 52 54 55 57 58 57 57 59 60 61 63 62 63 68 66 63 64 64 62 63 67 72 74 74 74 75 77 79 82 83 83 80 76 70 63 55 50 49 49 48 46 44 42 40 38 35 33 32 32
30 28 28 33 32 26 23 23 22 20 19 20 23 28 29 30 32 34 37 36 35 33 29 36 46 43 38 38 38 41 41 41 42 44 48 50 50 51 52 55 58 60 60 60 61 62 63 62 59 61 68 67 64 65 63 61 64 69 74 75 75 74 74 75 77 77 76 76 73 68 64 58 55 54 54 54 53 50 48 45 42 39 36 34 33 33
35 36 32 30 28 23 21 20 19 19 18 18 21 25 27 29 32 34 38 38 35 35 33 38 47 45 41 41 40 42 43 44 47 47 48 51 52 52 53 56 58 61 62 61 61 62 62 59 56 60 66 65 64 65 62 59 62 68 73 76 76 73 72 73 74 72 71 71 70 67 64 61 60 59 58 57 54 51 49 47 43 39 36 34 33 33
34 35 27 24 25 22 20 20 18 20 21 20 22 25 26 29 31 33 40 40 36 39 39 42 50 48 45 46 44 43 46 48 50 49 48 51 53 54 55 56 57 60 62 61 60 61 60 56 55 60 65 64 65 64 60 57 58 62 67 72 75 73 70 70 70 70 71 72 70 68 67 65 63 61 58 55 52 50 51 49 44 39 36 35 34 33
32 31 25 24 26 24 22 21 19 21 23 22 23 23 22 26 31 35 40 41 41 44 43 48 58 57 56 56 51 48 50 53 53 51 49 49 52 56 55 54 56 58 60 59 58 59 58 56 56 60 62 63 65 63 58 55 57 58 61 68 73 71 68 70 70 69 71 71 70 69 68 66 64 61 58 55 54 54 53 52 46 39 36 35 33 32
32 32 28 24 24 24 22 21 20 21 24 24 23 20 20 25 31 39 45 44 45 48 46 52 63 62 62 65 60 56 56 56 54 51 50 52 54 56 56 56 57 57 58 59 58 59 59 59 59 59 60 63 64 62 57 55 57 59 63 69 72 68 67 69 69 69 70 70 69 68 66 65 62 60 58 56 55 53 50 48 42 36 34 33 32 31
35 37 32 25 24 25 22 22 23 23 24 24 22 20 24 30 30 34 43 45 45 47 46 50 59 59 57 59 59 57 56 55 53 52 54 55 54 55 57 60 61 59 59 60 61 61 60 60 59 58 59 62 63 61 56 56 59 61 67 73 71 67 67 68 69 70 70 69 67 64 63 61 59 58 56 53 50 47 45 41 35 31 30 30 29 30
40 42 35 27 25 26 24 23 24 25 24 24 24 22 26 32 29 28 37 42 43 46 45 49 60 59 51 49 50 51 52 53 53 53 53 52 51 52 55 60 62 61 60 62 63 62 60 59 59 57 58 61 62 60 56 58 62 64 72 76 73 68 68 68 69 70 68 65 63 61 60 58 56 54 51 49 46 44 41 36 31 28 28 27 28 28
46 46 41 32 27 29 28 23 22 23 23 24 26 25 23 25 27 29 34 36 39 46 48 55 66 59 46 45 46 47 50 51 51 51 50 49 49 51 54 57 59 59 61 63 63 61 59 58 57 56 57 60 62 58 57 63 66 68 75 78 73 70 69 68 68 66 64 63 62 59 58 56 54 51 49 47 45 42 37 32 29 27 27 26 26 27
48 50 51 41 29 28 28 21 20 23 24 26 27 27 24 22 25 32 36 34 36 43 46 53 61 52 42 42 44 47 49 48 46 46 45 45 47 50 52 53 55 57 60 62 60 58 57 56 55 55 56 60 60 57 61 68 71 72 77 77 72 70 69 67 65 64 63 62 60 58 56 55 53 50 47 44 42 39 34 30 28 27 27 27 27 27
50 54 54 44 30 27 27 23 24 25 25 27 26 26 26 25 27 34 41 39 35 36 39 40 43 45 44 42 40 43 44 42 42 42 42 44 45 49 52 53 54 56 57 59 57 56 56 54 53 54 56 60 60 58 63 70 73 74 75 74 70 68 67 65 64 63 62 61 58 56 56 55 53 48 43 41 39 36 32 30 29 28 27 27 27 28
56 57 53 41 32 31 32 30 29 28 27 27 27 27 26 28 31 35 43 44 36 33 35 33 34 44 49 43 38 42 43 42 43 42 42 44 46 49 52 53 53 53 54 56 56 57 56 54 54 54 56 60 61 60 62 68 73 75 75 74 71 69 67 65 64 63 62 60 58 57 56 55 52 46 42 40 38 35 32 31 30 29 29 29 28 28
56 58 54 44 37 37 39 36 32 30 29 29 31 31 29 30 33 34 37 37 35 35 34 33 36 44 47 41 40 45 47 46 46 44 44 46 46 48 51 53 54 52 53 54 55 55 55 53 53 54 55 59 63 63 62 64 69 73 74 74 72 71 69 67 65 63 61 59 59 58 57 54 51 47 43 40 37 35 33 32 31 31 30 29 28 28
54 58 59 52 45 43 41 40 39 35 30 28 30 30 29 30 30 33 35 33 37 41 36 34 40 45 46 43 44 48 51 51 50 48 48 49 49 49 51 53 54 53 53 53 52 53 53 52 52 53 55 59 64 67 65 63 65 69 71 70 70 69 68 66 64 62 61 61 61 60 56 53 50 47 44 40 38 36 35 34 33 31 30 29 28 28
56 58 58 53 48 43 38 35 36 34 28 26 28 28 29 31 31 35 38 36 40 43 38 37 42 46 49 49 48 51 54 54 54 52 50 51 51 51 53 55 55 55 55 53 51 50 51 50 49 51 55 59 65 68 68 65 64 64 64 64 63 63 62 62 61 61 63 65 64 61 57 53 50 47 44 41 39 38 37 36 34 31 30 29 29 29
55 54 55 52 47 43 37 33 32 31 28 26 27 28 29 32 34 36 39 40 41 40 40 41 44 47 52 52 49 51 54 55 55 52 49 50 51 53 56 57 57 58 58 56 54 51 50 49 48 49 53 57 63 67 68 67 64 62 61 60 58 57 58 58 58 61 66 67 65 64 59 54 49 47 45 43 41 40 39 37 34 31 30 29 29 28
54 52 53 50 44 40 36 34 33 31 28 27 28 31 32 32 33 35 40 43 42 38 40 45 46 47 51 52 50 50 53 54 54 52 51 52 53 54 57 58 58 60 60 59 57 54 51 49 47 48 50 53 58 64 66 66 63 61 60 57 55 56 56 57 59 64 67 67 66 65 60 54 49 48 46 44 43 42 40 38 35 32 30 30 29 27
55 53 51 46 42 42 39 37 34 28 26 27 28 31 33 33 35 37 40 43 42 39 41 47 49 48 47 50 52 52 54 55 55 54 55 56 56 57 59 60 61 61 60 57 55 53 51 48 47 47 48 51 55 59 63 63 61 59 58 56 56 56 56 59 62 66 67 66 66 64 58 53 50 49 48 46 44 43 40 38 35 32 32 31 29 26
56 55 52 44 41 43 42 38 35 30 27 28 27 29 31 33 35 36 36 38 39 39 43 48 50 47 47 50 53 54 56 56 56 56 57 58 59 59 59 60 60 60 58 56 55 53 51 48 46 45 46 48 52 56 59 60 59 58 56 56 57 58 60 63 66 67 67 66 65 63 57 53 51 50 49 47 45 43 41 39 36 34 33 31 27 25
57 56 52 47 43 41 40 40 38 33 29 28 28 29 30 31 31 32 33 36 37 40 47 51 48 47 51 55 55 56 56 54 54 55 56 58 57 56 55 55 55 55 54 55 55 54 52 49 45 44 44 47 50 53 56 57 58 58 56 57 61 62 64 67 67 67 67 67 65 62 57 52 51 51 49 47 45 44 42 39 37 36 34 29 25 24
57 55 50 51 50 43 43 46 41 33 31 32 34 34 32 31 31 31 32 34 37 42 48 48 44 46 52 55 57 59 58 55 53 52 52 54 54 54 54 54 54 52 52 53 54 54 53 50 46 45 45 46 49 52 53 55 57 58 58 59 64 67 69 70 70 69 69 68 65 61 56 51 50 51 49 46 45 45 43 41 39 36 32 27 25 26
60 57 50 53 55 48 49 52 41 34 39 41 42 42 36 32 33 32 30 32 36 39 44 45 46 50 53 51 53 57 55 52 51 49 47 49 51 53 55 55 56 56 55 55 55 56 55 52 49 48 47 46 46 49 53 55 57 60 61 63 66 69 70 71 72 72 71 68 64 58 54 50 50 50 48 47 46 45 44 42 39 34 31 28 27 29
64 60 52 54 56 53 57 55 44 41 48 48 47 48 43 37 37 36 35 35 36 37 40 46 50 52 51 46 45 47 49 48 48 47 48 50 52 55 57 57 58 58 56 54 53 53 52 51 50 48 47 46 44 44 49 53 56 60 63 66 69 69 70 72 74 73 70 64 60 56 51 49 50 50 49 48 47 46 45 43 37 32 31 30 29 31
64 60 55 55 57 59 60 58 54 52 52 51 48 46 43 40 38 37 37 38 39 39 39 43 47 50 49 46 42 43 46 48 48 49 51 53 55 56 56 55 55 54 52 50 47 46 47 48 50 49 48 47 44 42 43 47 54 60 64 68 70 70 71 72 72 69 64 59 56 53 49 49 51 52 50 48 47 46 45 42 36 32 32 32 31 30
59 58 58 57 60 64 63 61 60 55 51 51 47 41 39 38 37 39 39 39 42 44 40 39 44 48 48 48 46 45 46 50 52 52 51 52 52 51 49 47 48 49 49 48 46 43 44 46 49 51 51 48 45 43 41 46 54 60 64 66 67 68 69 68 67 64 59 56 54 51 50 52 53 53 51 49 49 47 44 41 37 35 33 32 30 28
57 59 62 61 61 65 67 66 62 56 54 55 51 46 42 39 40 43 40 37 41 44 41 38 40 44 47 49 51 50 49 52 53 51 50 50 49 48 48 48 48 48 48 48 48 47 46 46 47 49 51 50 48 46 44 47 54 58 61 63 65 65 66 65 64 61 58 55 54 52 53 55 54 53 52 51 50 47 44 41 39 36 33 29 27 28
57 60 64 65 61 58 60 62 60 56 57 58 56 52 45 39 40 41 38 39 42 43 41 39 37 39 43 47 50 51 51 55 55 51 48 48 48 48 49 50 52 51 50 50 50 49 47 46 46 47 49 50 49 47 47 49 53 56 59 62 64 65 65 65 64 61 59 58 56 56 56 56 54 54 53 51 50 47 44 42 39 35 30 27 28 31
55 57 59 62 61 56 54 55 55 55 56 56 57 56 48 40 39 38 40 47 46 40 40 40 36 36 41 45 47 48 49 52 52 47 46 48 50 49 49 49 51 52 53 53 52 50 48 47 46 46 47 48 47 47 48 51 54 56 58 62 65 65 65 65 64 64 63 60 57 58 58 55 55 56 54 52 50 48 45 42 37 32 28 28 30 33
50 50 54 58 58 56 54 53 54 56 57 57 57 55 48 44 43 45 50 53 47 40 40 40 36 35 39 45 47 45 44 44 42 41 43 48 50 50 50 49 49 50 53 54 54 53 50 48 46 46 46 46 47 47 48 50 52 55 59 63 65 64 64 65 66 67 65 59 56 59 59 56 57 58 55 51 50 48 46 40 33 29 29 30 32 34
50 48 51 56 55 54 55 57 58 60 59 57 55 53 50 50 53 55 55 53 49 46 45 41 38 37 40 44 45 43 42 42 41 41 45 48 50 51 52 51 52 53 54 55 55 54 52 50 48 46 45 45 46 48 50 51 51 54 57 60 62 63 64 66 68 67 62 57 57 60 60 58 59 60 56 52 50 49 44 37 31 30 30 32 34 37
54 51 53 57 57 56 55 57 62 65 62 58 57 56 55 55 56 56 54 52 52 52 49 44 41 39 40 43 44 43 44 44 43 43 46 50 52 53 53 54 55 57 57 56 56 55 54 52 50 47 45 45 45 48 51 52 52 53 55 58 62 64 65 68 69 65 61 58 59 61 60 59 61 61 56 53 52 48 41 34 32 33 34 35 38 41
52 51 54 56 56 57 55 53 57 64 64 61 60 59 58 56 55 54 54 53 52 50 49 48 44 40 40 40 42 44 45 44 43 44 48 53 55 55 54 55 56 57 56 55 55 55 55 54 52 49 46 45 46 48 50 52 52 52 54 59 63 64 65 67 66 63 60 60 61 61 61 61 62 61 58 56 53 45 37 35 36 37 38 39 42 44
54 52 56 56 55 58 60 56 55 57 59 58 58 58 57 55 53 54 54 53 50 48 47 47 45 44 43 42 42 45 44 43 44 44 46 50 53 54 54 55 56 58 58 57 56 55 54 54 53 50 48 47 47 48 51 53 52 53 57 62 64 64 64 64 61 59 60 61 62 63 63 63 64 63 62 59 52 42 37 39 42 42 43 43 44 45
62 58 60 59 56 57 60 60 57 54 53 53 54 55 54 53 53 52 51 50 50 49 48 46 45 46 45 44 44 45 44 44 45 47 49 52 55 57 58 59 60 60 59 58 57 57 56 56 54 52 49 49 48 49 51 52 52 55 61 65 64 63 63 61 59 60 61 62 64 65 65 66 67 68 66 60 48 39 39 41 44 45 46 46 46 46
65 62 61 59 59 61 63 64 62 58 54 52 53 53 52 50 50 49 48 48 48 48 48 48 47 47 46 46 46 46 47 48 49 51 54 57 59 60 60 61 61 60 60 59 59 59 59 58 55 53 51 51 50 49 49 51 53 58 63 66 65 64 63 62 61 61 62 63 65 65 65 69 71 71 68 58 46 41 43 45 46 48 49 49 48 47
64 66 65 63 63 64 63 62 61 58 54 52 53 53 51 49 48 48 48 47 46 45 47 47 47 47 47 47 47 47 49 52 52 54 57 58 58 58 57 58 61 62 63 63 61 58 57 56 54 53 52 52 52 50 50 52 56 60 63 65 66 66 65 64 63 63 63 64 64 64 67 71 72 71 68 57 47 44 47 48 49 50 50 49 48 48
66 68 67 63 61 60 58 57 56 54 51 51 55 58 56 53 52 50 47 46 45 45 45 45 46 47 46 46 47 48 49 52 53 53 55 56 56 56 57 59 61 62 63 62 60 57 55 55 54 53 53 54 53 52 52 55 59 62 65 68 68 67 66 66 65 65 65 64 64 66 70 72 72 71 66 55 46 46 49 50 51 53 52 50 50 49
71 72 71 66 63 62 61 59 57 56 54 53 53 56 57 56 54 50 47 46 45 44 44 43 44 45 44 44 44 45 46 49 51 50 50 52 52 53 55 56 57 58 59 59 58 57 56 55 55 55 55 55 55 54 54 57 61 65 69 70 70 69 68 68 68 68 67 66 66 69 72 72 72 71 64 53 47 49 51 51 53 54 52 51 51 50
73 73 74 73 71 69 66 63 61 60 60 57 55 55 56 55 53 50 49 48 46 45 45 44 43 43 42 41 41 41 42 44 48 49 49 49 49 50 51 53 54 55 56 57 58 58 58 57 56 56 56 56 55 55 55 58 63 68 71 72 72 71 70 70 71 71 69 68 69 72 73 74 73 71 63 54 50 51 52 53 54 53 50 52 54 51